N119T KHFD-KLCI

Flight info

Callsign N119T
Flight time 0h 43m
Altitude 9000
Route KEYNN T295 CON
Aircraft BE9L/L-SBDFGR/C

Departure

Time 2026-05-05 01:09
Airport Hartford Brainard Airport (KHFD)

Arrival

Time 2026-05-05 01:53
Airport Laconia Municipal Airport (KLCI)
Time Latitude Longitude Altitude Speed Heading
2026-05-05 00:53 41.74068 -72.64980 31 ft 0 kts 97°
2026-05-05 01:02 41.74068 -72.64977 31 ft 0 kts 97°
2026-05-05 01:03 41.74124 -72.64941 29 ft 18 kts
2026-05-05 01:04 41.74259 -72.64914 29 ft 19 kts
2026-05-05 01:04 41.74354 -72.64832 26 ft 0 kts 83°
2026-05-05 01:08 41.74354 -72.64831 26 ft 0 kts 83°
2026-05-05 01:08 41.74356 -72.64801 25 ft 0 kts 87°
2026-05-05 01:08 41.74338 -72.64744 24 ft 14 kts 154°
2026-05-05 01:08 41.74119 -72.64777 29 ft 61 kts 187°
2026-05-05 01:09 41.73546 -72.64897 48 ft 102 kts 188°
2026-05-05 01:09 41.72844 -72.65041 382 ft 107 kts 189°
2026-05-05 01:09 41.72073 -72.65064 704 ft 116 kts 168°
2026-05-05 01:09 41.71271 -72.64831 1104 ft 118 kts 169°
2026-05-05 01:10 41.70485 -72.64589 1553 ft 116 kts 168°
2026-05-05 01:10 41.69701 -72.64349 2009 ft 116 kts 168°
2026-05-05 01:10 41.68911 -72.64105 2426 ft 122 kts 168°
2026-05-05 01:10 41.67995 -72.63829 2529 ft 148 kts 168°
2026-05-05 01:11 41.66915 -72.63473 2543 ft 169 kts 167°
2026-05-05 01:11 41.65726 -72.63072 2544 ft 183 kts 166°
2026-05-05 01:11 41.64462 -72.62643 2545 ft 191 kts 166°
2026-05-05 01:11 41.63157 -72.62217 2546 ft 196 kts 167°
2026-05-05 01:12 41.61829 -72.61790 2548 ft 199 kts 167°
2026-05-05 01:12 41.60465 -72.61335 2552 ft 201 kts 167°
2026-05-05 01:12 41.59113 -72.60891 2554 ft 202 kts 167°
2026-05-05 01:12 41.57742 -72.60435 2554 ft 203 kts 167°
2026-05-05 01:13 41.56372 -72.59970 2555 ft 204 kts 166°
2026-05-05 01:13 41.54995 -72.59534 2555 ft 204 kts 167°
2026-05-05 01:13 41.53589 -72.59310 2533 ft 205 kts 190°
2026-05-05 01:13 41.52487 -72.60397 2706 ft 203 kts 236°
2026-05-05 01:14 41.52303 -72.62221 2898 ft 208 kts 281°
2026-05-05 01:14 41.53162 -72.63711 3275 ft 204 kts 327°
2026-05-05 01:14 41.54494 -72.64017 3693 ft 195 kts
2026-05-05 01:14 41.55801 -72.63765 4115 ft 188 kts
2026-05-05 01:15 41.56642 -72.63559 4389 ft 184 kts 19°
2026-05-05 01:15 41.58057 -72.62474 4949 ft 178 kts 15°
2026-05-05 01:15 41.59253 -72.62178 5376 ft 174 kts 11°
2026-05-05 01:15 41.60422 -72.61893 5893 ft 164 kts 11°
2026-05-05 01:16 41.61514 -72.61610 6311 ft 163 kts 12°
2026-05-05 01:16 41.62596 -72.61359 6784 ft 158 kts 13°
2026-05-05 01:16 41.63679 -72.61056 7152 ft 161 kts 12°
2026-05-05 01:16 41.64771 -72.60757 7528 ft 163 kts 12°
2026-05-05 01:17 41.65888 -72.60451 7973 ft 164 kts 12°
2026-05-05 01:17 41.67005 -72.60148 8417 ft 166 kts 11°
2026-05-05 01:17 41.68131 -72.59841 8844 ft 168 kts 11°
2026-05-05 01:17 41.69323 -72.59518 9018 ft 187 kts 11°
2026-05-05 01:18 41.70671 -72.59153 9039 ft 209 kts 11°
2026-05-05 01:18 41.72157 -72.58751 9037 ft 224 kts 11°
2026-05-05 01:18 41.73727 -72.58325 9031 ft 235 kts 11°
2026-05-05 01:18 41.75341 -72.57887 9026 ft 241 kts 11°
2026-05-05 01:19 41.77007 -72.57434 9022 ft 246 kts 11°
2026-05-05 01:19 41.78698 -72.56976 9020 ft 249 kts 11°
2026-05-05 01:19 41.80381 -72.56518 9019 ft 250 kts 11°
2026-05-05 01:19 41.82107 -72.56049 9018 ft 252 kts 11°
2026-05-05 01:20 41.83815 -72.55585 9017 ft 252 kts 11°
2026-05-05 01:20 41.85526 -72.55119 9016 ft 253 kts 11°
2026-05-05 01:20 41.87255 -72.54649 9015 ft 253 kts 11°
2026-05-05 01:20 41.88991 -72.54176 9014 ft 254 kts 11°
2026-05-05 01:21 41.90700 -72.53710 9013 ft 254 kts 11°
2026-05-05 01:21 41.92391 -72.52992 9015 ft 252 kts 29°
2026-05-05 01:21 41.93946 -72.51934 9010 ft 253 kts 29°
2026-05-05 01:21 41.95512 -72.50833 9007 ft 253 kts 29°
2026-05-05 01:22 41.97060 -72.49729 9003 ft 253 kts 30°
2026-05-05 01:22 41.98605 -72.48621 9000 ft 254 kts 30°
2026-05-05 01:22 42.00154 -72.47505 8996 ft 253 kts 30°
2026-05-05 01:22 42.01712 -72.46381 8993 ft 253 kts 30°
2026-05-05 01:23 42.03259 -72.45264 8990 ft 254 kts 30°
2026-05-05 01:23 42.04824 -72.44133 8987 ft 254 kts 29°
2026-05-05 01:23 42.06366 -72.43018 8983 ft 254 kts 29°
2026-05-05 01:23 42.07913 -72.41897 8980 ft 254 kts 29°
2026-05-05 01:24 42.09469 -72.40771 8977 ft 254 kts 29°
2026-05-05 01:24 42.11031 -72.39638 8972 ft 253 kts 29°
2026-05-05 01:24 42.12578 -72.38517 8970 ft 253 kts 29°
2026-05-05 01:24 42.14119 -72.37399 8970 ft 253 kts 29°
2026-05-05 01:25 42.15654 -72.36285 8970 ft 252 kts 29°
2026-05-05 01:25 42.17199 -72.35162 8971 ft 252 kts 29°
2026-05-05 01:25 42.18754 -72.34032 8970 ft 252 kts 30°
2026-05-05 01:25 42.20306 -72.32903 8969 ft 252 kts 30°
2026-05-05 01:26 42.21843 -72.31786 8970 ft 252 kts 30°
2026-05-05 01:26 42.23384 -72.30663 8970 ft 252 kts 30°
2026-05-05 01:26 42.24915 -72.29548 8970 ft 252 kts 30°
2026-05-05 01:26 42.26469 -72.28415 8972 ft 252 kts 30°
2026-05-05 01:27 42.27992 -72.27306 8975 ft 252 kts 30°
2026-05-05 01:27 42.29529 -72.26183 8977 ft 251 kts 30°
2026-05-05 01:27 42.31072 -72.25057 8980 ft 251 kts 30°
2026-05-05 01:27 42.32606 -72.23937 8984 ft 251 kts 30°
2026-05-05 01:28 42.34148 -72.22810 8988 ft 251 kts 31°
2026-05-05 01:28 42.35661 -72.21703 8992 ft 251 kts 31°
2026-05-05 01:28 42.37197 -72.20579 8996 ft 250 kts 31°
2026-05-05 01:28 42.38732 -72.19454 9000 ft 250 kts 31°
2026-05-05 01:29 42.40261 -72.18335 9004 ft 250 kts 31°
2026-05-05 01:29 42.41799 -72.17207 9005 ft 250 kts 31°
2026-05-05 01:29 42.43332 -72.16083 9006 ft 251 kts 31°
2026-05-05 01:29 42.44864 -72.14958 9006 ft 251 kts 31°
2026-05-05 01:30 42.46386 -72.13841 9006 ft 251 kts 31°
2026-05-05 01:30 42.47930 -72.12707 9006 ft 251 kts 31°
2026-05-05 01:30 42.49462 -72.11581 9006 ft 251 kts 31°
2026-05-05 01:30 42.50974 -72.10469 9005 ft 251 kts 31°
2026-05-05 01:31 42.52519 -72.09332 9004 ft 251 kts 31°
2026-05-05 01:31 42.54037 -72.08215 9003 ft 251 kts 31°
2026-05-05 01:31 42.55576 -72.07081 9001 ft 251 kts 31°
2026-05-05 01:31 42.57106 -72.05953 9000 ft 251 kts 31°
2026-05-05 01:32 42.58652 -72.04813 9000 ft 251 kts 31°
2026-05-05 01:32 42.60162 -72.03698 9000 ft 251 kts 31°
2026-05-05 01:32 42.61707 -72.02557 9000 ft 251 kts 30°
2026-05-05 01:32 42.63221 -72.01439 9000 ft 251 kts 30°
2026-05-05 01:33 42.64757 -72.00304 9001 ft 251 kts 30°
2026-05-05 01:33 42.66279 -71.99178 9001 ft 251 kts 30°
2026-05-05 01:33 42.67812 -71.98044 9001 ft 251 kts 30°
2026-05-05 01:33 42.69351 -71.96903 9001 ft 252 kts 30°
2026-05-05 01:34 42.70885 -71.95768 9001 ft 252 kts 30°
2026-05-05 01:34 42.72420 -71.94630 9001 ft 252 kts 30°
2026-05-05 01:34 42.73962 -71.93487 9001 ft 252 kts 30°
2026-05-05 01:34 42.75490 -71.92352 9002 ft 252 kts 30°
2026-05-05 01:35 42.77041 -71.91202 9001 ft 252 kts 30°
2026-05-05 01:35 42.78578 -71.90060 9001 ft 252 kts 30°
2026-05-05 01:35 42.80113 -71.88917 9002 ft 252 kts 30°
2026-05-05 01:35 42.81644 -71.87780 9002 ft 252 kts 30°
2026-05-05 01:36 42.83187 -71.86632 9002 ft 252 kts 30°
2026-05-05 01:36 42.84735 -71.85479 9002 ft 252 kts 30°
2026-05-05 01:36 42.86250 -71.84349 9002 ft 252 kts 30°
2026-05-05 01:36 42.87792 -71.83200 9002 ft 252 kts 30°
2026-05-05 01:37 42.89341 -71.82044 9001 ft 252 kts 30°
2026-05-05 01:37 42.90861 -71.80909 8998 ft 252 kts 30°
2026-05-05 01:37 42.92416 -71.79749 8939 ft 251 kts 30°
2026-05-05 01:37 42.93926 -71.78620 8677 ft 249 kts 30°
2026-05-05 01:38 42.95433 -71.77494 8407 ft 247 kts 30°
2026-05-05 01:38 42.96944 -71.76363 8137 ft 248 kts 30°
2026-05-05 01:38 42.98449 -71.75236 7874 ft 250 kts 30°
2026-05-05 01:38 42.99974 -71.74094 7693 ft 252 kts 30°
2026-05-05 01:39 43.01505 -71.72947 7496 ft 249 kts 30°
2026-05-05 01:39 43.03012 -71.71817 7301 ft 247 kts 30°
2026-05-05 01:39 43.04503 -71.70699 7106 ft 243 kts 30°
2026-05-05 01:39 43.05971 -71.69597 6909 ft 239 kts 30°
2026-05-05 01:40 43.07422 -71.68507 6712 ft 236 kts 30°
2026-05-05 01:40 43.08841 -71.67442 6518 ft 234 kts 30°
2026-05-05 01:40 43.10224 -71.66402 6367 ft 231 kts 30°
2026-05-05 01:40 43.11647 -71.65331 6213 ft 232 kts 30°
2026-05-05 01:41 43.13062 -71.64267 6061 ft 232 kts 30°
2026-05-05 01:41 43.14468 -71.63206 5910 ft 232 kts 30°
2026-05-05 01:41 43.15883 -71.62128 5758 ft 232 kts 30°
2026-05-05 01:41 43.17276 -71.61056 5608 ft 232 kts 30°
2026-05-05 01:42 43.18690 -71.59987 5455 ft 231 kts 28°
2026-05-05 01:42 43.20110 -71.58958 5254 ft 230 kts 28°
2026-05-05 01:42 43.21497 -71.57928 5054 ft 228 kts 29°
2026-05-05 01:42 43.22908 -71.57032 4951 ft 222 kts 10°
2026-05-05 01:43 43.24371 -71.57364 4954 ft 209 kts 333°
2026-05-05 01:43 43.25699 -71.58116 4952 ft 204 kts 334°
2026-05-05 01:43 43.26984 -71.58843 4952 ft 200 kts 334°
2026-05-05 01:43 43.28279 -71.59573 4953 ft 198 kts 334°
2026-05-05 01:44 43.29536 -71.60284 4953 ft 196 kts 334°
2026-05-05 01:44 43.30676 -71.61234 4953 ft 193 kts 325°
2026-05-05 01:44 43.31839 -71.62180 4953 ft 193 kts 327°
2026-05-05 01:44 43.33015 -71.63054 4953 ft 193 kts 329°
2026-05-05 01:45 43.34212 -71.63880 4953 ft 193 kts 330°
2026-05-05 01:45 43.35414 -71.64665 4954 ft 193 kts 332°
2026-05-05 01:45 43.36649 -71.65440 4953 ft 193 kts 332°
2026-05-05 01:45 43.37872 -71.66182 4952 ft 193 kts 333°
2026-05-05 01:46 43.39097 -71.66909 4951 ft 193 kts 333°
2026-05-05 01:46 43.40322 -71.67622 4950 ft 193 kts 334°
2026-05-05 01:46 43.41574 -71.68343 4947 ft 194 kts 334°
2026-05-05 01:46 43.42880 -71.69090 4843 ft 214 kts 334°
2026-05-05 01:47 43.44315 -71.69904 4586 ft 232 kts 335°
2026-05-05 01:47 43.45839 -71.70789 4319 ft 243 kts 336°
2026-05-05 01:47 43.47356 -71.71702 4198 ft 232 kts 335°
2026-05-05 01:47 43.48805 -71.72440 3777 ft 220 kts 339°
2026-05-05 01:48 43.50242 -71.72437 3603 ft 203 kts 24°
2026-05-05 01:48 43.51218 -71.71113 3504 ft 193 kts 65°
2026-05-05 01:48 43.51688 -71.69469 3522 ft 182 kts 78°
2026-05-05 01:48 43.51789 -71.67767 3455 ft 178 kts 91°
2026-05-05 01:49 43.51819 -71.66074 3408 ft 180 kts 92°
2026-05-05 01:49 43.51839 -71.64328 3277 ft 186 kts 92°
2026-05-05 01:49 43.51868 -71.62504 3100 ft 193 kts 92°
2026-05-05 01:49 43.51917 -71.60671 3086 ft 186 kts 85°
2026-05-05 01:50 43.52204 -71.58965 3004 ft 187 kts 76°
2026-05-05 01:50 43.52628 -71.57233 2760 ft 195 kts 72°
2026-05-05 01:50 43.53125 -71.55450 2504 ft 200 kts 70°
2026-05-05 01:50 43.53650 -71.53693 2312 ft 200 kts 69°
2026-05-05 01:51 43.54195 -71.51919 1973 ft 206 kts 69°
2026-05-05 01:51 43.54740 -71.50147 1699 ft 194 kts 69°
2026-05-05 01:51 43.55227 -71.48582 1436 ft 161 kts 68°
2026-05-05 01:51 43.55649 -71.47264 1208 ft 138 kts 69°
2026-05-05 01:52 43.56002 -71.46133 1062 ft 126 kts 69°
2026-05-05 01:52 43.56305 -71.45102 942 ft 105 kts 71°
2026-05-05 01:52 43.56587 -71.44157 789 ft 107 kts 70°
2026-05-05 01:52 43.56873 -71.43221 635 ft 107 kts 70°
2026-05-05 01:53 43.57146 -71.42309 531 ft 85 kts 66°
2026-05-05 01:53 43.57280 -71.41866 522 ft 23 kts 67°
2026-05-05 01:53 43.57350 -71.41713 522 ft 14 kts 354°
2026-05-05 01:53 43.57406 -71.41740 523 ft 0 kts 332°